Flag for U.S.A. Weather past 2 weeks in Bismarck, North Dakota, U.S.A.

Now
58 °F

Fog.


Feels Like: 56 °F
Forecast: 59 / 86 °F
Wind: 8 mph from Northeast

Location: Bismarck Municipal Airport

Current Time: Aug 1, 2014 at 7:32:31 AM

Latest Report: Aug 1, 2014 at 6:52 AM


Visibility: 6 mi

Pressure: 30.04 "Hg

Humidity: 90%

Dew point: 55 °F

Location of BismarckLocation

Historic Weather in Bismarck — Graph

°F

Bismarck temperature yesterday

Maximum temperature yesterday: 87 °F (at 4:52 PM)
Minimum temperature yesterday: 55 °F (at 4:52 AM)
Average temperature yesterday: 72 °F

Past Weeks' High & Low Weather Summary

 TemperatureHumidityPressure
High94 °F (Jul 20, 4:52 PM)100% (Jul 19, 6:52 AM)30.36 "Hg (Jul 19, 6:52 AM)
Low44 °F (Jul 28, 6:52 AM)27% (Jul 31, 3:52 PM)29.62 "Hg (Jul 20, 5:52 AM)
Average70 °F66%29.97 "Hg
* Reported Jul 17 5:52 AM — Aug 1 5:52 AM, Bismarck, Weather by CustomWeather, © 2014

Note: Actual official high and low records may vary slightly from our data, if they occured in-between our weather recording intervals... More about our weather records

Advertising

Bismarck weather history for previous 24 hours

 ConditionsComfort  
Time TempWeatherWind HumidityBarometerVisibility
5:52 AM
Aug 1
58 °FClear.7 mph90%30.05 "Hg10 mi
4:52 AM59 °FPassing clouds.6 mph90%30.05 "Hg10 mi
3:52 AM62 °FPassing clouds.7 mph80%30.04 "Hg10 mi
2:52 AM62 °FPassing clouds.8 mph83%30.04 "Hg10 mi
1:52 AM63 °FPassing clouds.7 mph81%30.04 "Hg10 mi
12:52 AM65 °FClear.7 mph76%30.03 "Hg10 mi
11:52 PM
Jul 31
68 °FClear.6 mph68%30.03 "Hg10 mi
10:52 PM69 °FPassing clouds.No wind63%30.02 "Hg10 mi
9:52 PM70 °FPassing clouds.No wind59%30.01 "Hg10 mi
8:52 PM76 °FPassing clouds.9 mph47%30.00 "Hg10 mi
7:52 PM83 °FSunny.7 mph31%30.01 "Hg10 mi
6:52 PM85 °FSunny.7 mph29%30.01 "Hg10 mi
5:52 PM86 °FSunny.5 mph28%30.03 "Hg10 mi
4:52 PM87 °FSunny.No wind27%30.04 "Hg10 mi
3:52 PM86 °FSunny.7 mph27%30.05 "Hg10 mi
2:52 PM85 °FSunny.9 mph34%30.05 "Hg10 mi
1:52 PM84 °FSunny.5 mph36%30.06 "Hg10 mi
12:52 PM83 °FPassing clouds.5 mph38%30.06 "Hg10 mi
11:52 AM80 °FSunny.6 mph45%30.07 "Hg10 mi
10:52 AM77 °FSunny.No wind54%30.07 "Hg10 mi
9:52 AM72 °FSunny.3 mph61%30.09 "Hg10 mi
8:52 AM66 °FSunny.No wind75%30.10 "Hg10 mi
7:52 AM60 °FSunny.No wind86%30.09 "Hg10 mi
Weather by CustomWeather, © 2014

See weather overviewHow to use our weather pages